Nasewytewa Takes 2nd School Record This Season

This content requires a MileSplit Pro plan.
Join Now and select any plan for instant access!

MileSplit Pro
Join Now

We're taking a page from Colorado webmaster Bobby Reyes and starting a new series called 'Leap Of The Week" meant to highlight top year over year improvements from each meet.

While, Leo Daschbach (Highland, Jr.) dominated the Arizona Boys Rankings with a sub-15 performance at Desert Twilight, but Lee Nasewytewa (Desert Vista, Sr.) improved his time by almost a minute ahead of his performance in the Boys Large School Open race at last year's meet. In doing so, he recorded Desert Vista's third school record in four years, set previously by Reece Donihi and DJ Harris.

Check out how the returners fared from last year's meet to this year's.

Desert Twilight Boys 5km Improvement From 2017-2018

Athlete 2018 Desert Twilight Boys 2017 Desert Twilight Boys Difference
Leo Daschbach 14:52.60 15:30.20 ( 37.60 )
Lee Nasewytewa 15:15.90 16:09.40 ( 53.50 )
Hunter Krasa 15:33.30 15:58.00 ( 24.70 )
Kenny Edwards 15:35.60 16:01.60 ( 26.00 )
Sammy Van Alstine 15:35.80 15:21.40 14.40
Connor Heron 15:39.20 16:02.70 ( 23.50 )
Kyle Partin 15:41.60 16:23.00 ( 41.40 )
Ayden Schilb 15:43.80 15:57.00 ( 13.20 )
Derek Baca 15:54.30 16:09.00 ( 14.70 )
Jose Acuna 15:54.70 15:37.70 17.00
Caden Resendez 15:56.00 16:27.60 ( 31.60 )
Jacob Block 15:56.50 16:32.80 ( 36.30 )
Anekin Hetman 15:57.50 16:01.00 ( 3.50 )
Deshawn Malone 16:00.30 16:40.20 ( 39.90 )
Mateo Borrego 16:01.70 16:48.00 ( 46.30 )
Isaiah Hunyumptewa 16:01.80 15:59.70 2.10
Travis Kearney 16:03.00 16:25.40 ( 22.40 )
Kyle Miller 16:03.10 16:51.00 ( 47.90 )
Dallin Archibald 16:03.40 16:13.70 ( 10.30 )
Ethan Rodriguez-story 16:07.80 17:29.70 ( 1:21.90 )
Alec Almendarez 16:11.10 17:49.00 ( 1:37.90 )
Christian Tamura 16:13.60 16:26.30 ( 12.70 )
Gavin Vogt 16:14.90 16:26.50 ( 11.60 )
William Ryan-johnson 16:16.40 18:28.00 ( 2:11.60 )
Brandon Bounds 16:17.00 16:41.20 ( 24.20 )
Micah Stanton 16:19.30 17:12.60 ( 53.30 )
Xoaquin Baca 16:19.30 16:33.00 ( 13.70 )
Broderick Bourgeois 16:20.20 16:29.00 ( 8.80 )
Jihad Nodman 16:21.10 16:10.00 11.10
Thomas Leitner 16:22.30 15:50.20 32.10
Justin Pace 16:22.80 17:53.50 ( 1:30.70 )
Tatum Jelleberg 16:23.00 18:05.00 ( 1:42.00 )
Zach Gomez 16:23.20 16:11.00 12.20
Ryan Dempsey 16:23.50 16:41.00 ( 17.50 )
Sam Green 16:24.30 19:44.30 ( 3:20.00 )
Joey Fausel 16:24.70 17:19.00 ( 54.30 )
Dayton Carlson 16:24.80 16:58.00 ( 33.20 )
Zach Johnson 16:25.00 16:42.30 ( 17.30 )
Joseph Riddle 16:25.10 16:15.00 10.10
Denton Hardt 16:27.60 16:58.00 ( 30.40 )
Talon Smith 16:28.40 16:20.80 7.60
Aaron Simien 16:28.40 16:59.50 ( 31.10 )
Daniel Kirkland 16:29.10 17:30.00 ( 1:00.90 )
Zac Whaley 16:29.20 16:15.40 13.80
Alex Graham 16:30.70 16:43.00 ( 12.30 )
Demetrius Daw 16:31.10 16:28.40 2.70
Kade Saunders 16:31.80 16:34.60 ( 2.80 )
Jacob Doest 16:33.10 16:56.20 ( 23.10 )
Konrad Marais 16:34.00 16:47.70 ( 13.70 )
Nick Shank 16:35.20 17:00.00 ( 24.80 )
Alex Service 16:35.30 16:50.00 ( 14.70 )
Alec Rinsem 16:35.40 17:01.00 ( 25.60 )
Bryan Mendez 16:36.90 17:45.80 ( 1:08.90 )
Zachary Frisch 16:37.50 16:35.20 2.30
Johnny Pershing 16:37.90 16:36.00 1.90
Conner Dosmann 16:38.00 17:52.70 ( 1:14.70 )
Hayden Anderson 16:39.60 16:52.30 ( 12.70 )
Braden Rasmussen 16:40.10 16:50.60 ( 10.50 )
Dan Darnell 16:40.20 16:51.70 ( 11.50 )
Martin Fuller 16:40.70 17:39.30 ( 58.60 )
Ethan Perrin 16:41.40 17:45.40 ( 1:04.00 )
Luke Mcgowan 16:41.60 18:16.00 ( 1:34.40 )
Kyle Shirley 16:42.20 16:25.00 17.20
Adan Baca 16:42.70 17:52.00 ( 1:09.30 )
Tyler Sherman 16:42.70 17:40.80 ( 58.10 )
Jacob Stabler 16:43.10 18:24.20 ( 1:41.10 )
Dartagnian Mogler 16:44.20 17:57.30 ( 1:13.10 )
Joseph Carlson 16:44.50 17:01.00 ( 16.50 )
Michael Sexson 16:47.70 17:03.50 ( 15.80 )
Gabriel Garcia 16:47.70 16:04.20 43.50
Ivan Rakich 16:48.00 17:03.00 ( 15.00 )
John Shinske 16:48.80 18:26.50 ( 1:37.70 )
Dominic Arellano 16:50.20 16:40.70 9.50
Thomas Sewell 16:50.40 18:19.10 ( 1:28.70 )
Jake Bruch 16:55.20 17:25.90 ( 30.70 )
Andy Richardson 16:55.70 16:47.00 8.70
Connor Anderson 16:56.40 17:11.10 ( 14.70 )
Kyle Blunt 16:56.40 16:41.00 15.40
Carter Mayes 16:57.80 17:28.60 ( 30.80 )
Marquavias Brandenburg 16:58.10 19:36.30 ( 2:38.20 )
Dallin Lucas 16:58.30 18:29.60 ( 1:31.30 )
Joseph Hamilton 16:58.60 18:24.30 ( 1:25.70 )
Gavin Allen 16:58.80 17:31.00 ( 32.20 )
Damien Orozco 16:58.90 17:10.60 ( 11.70 )
Wilbert Esquivel 16:59.50 17:19.00 ( 19.50 )
Owen Jackson 16:59.70 17:51.60 ( 51.90 )
Jack Magtibay 17:00.30 16:54.60 5.70
Justin James 17:00.50 16:29.00 31.50
Johnson Farrell 17:01.50 16:58.10 3.40
Ethan Howard 17:02.20 17:10.70 ( 8.50 )
Cristian Chavira 17:03.30 18:05.30 ( 1:02.00 )
Grant Dolin 17:03.70 16:55.60 8.10
Vincent Larente 17:04.10 17:50.80 ( 46.70 )
Benjamin Thomas 17:04.60 17:51.00 ( 46.40 )
Ryan Taylor 17:05.80 16:45.60 20.20
Raymond Wright 17:05.90 17:09.20 ( 3.30 )
Nicolo Perciballi 17:06.40 18:08.00 ( 1:01.60 )
Boaz Maiyo 17:06.50 18:51.80 ( 1:45.30 )
Jacob Urrea 17:08.00 17:12.00 ( 4.00 )
Monty Gibson 17:08.70 17:10.00 ( 1.30 )
Avery Dylla 17:09.40 17:43.80 ( 34.40 )
Michael Fairbanks 17:09.60 17:59.90 ( 50.30 )
Jay Patel 17:09.60 17:23.00 ( 13.40 )
Reshaun Curley 17:09.60 16:44.00 25.60
Cody Butler 17:10.20 16:55.30 14.90
Dewayne Laban 17:10.70 16:45.00 25.70
Andrew Peters 17:10.90 17:28.50 ( 17.60 )
Josh Judd 17:10.90 18:46.70 ( 1:35.80 )
Ryan Milano 17:11.00 18:01.00 ( 50.00 )
Jesse Stone 17:11.20 19:19.20 ( 2:08.00 )
Kyle Swindler 17:11.50 16:59.70 11.80
Max Rogers 17:11.80 17:22.00 ( 10.20 )
Jacob Geiselhofer 17:12.10 17:41.00 ( 28.90 )
Jose Valtierra 17:12.20 17:04.00 8.20
Zack Beall 17:12.30 16:35.90 36.40
Emmanuel Corral 17:13.20 19:01.20 ( 1:48.00 )
Matt Judd 17:13.30 16:54.00 19.30
Jacob Gunderson 17:13.90 17:55.60 ( 41.70 )
Jaxon Mills 17:14.40 18:45.10 ( 1:30.70 )
Carson Zych 17:14.50 17:09.90 4.60
Caleb Venjohn 17:14.60 18:42.30 ( 1:27.70 )
Jackson Moran 17:15.00 19:42.40 ( 2:27.40 )
Xander Black 17:17.40 17:28.10 ( 10.70 )
Liam Hasty 17:17.40 17:08.00 9.40
Taylor Taliman 17:17.60 17:07.60 10.00
Sailor Starcher 17:17.60 18:15.70 ( 58.10 )
Christopher Ishac 17:18.00 18:18.90 ( 1:00.90 )
Matthew Whitehouse 17:18.40 17:36.20 ( 17.80 )
Isaac Simien 17:18.50 17:10.60 7.90
Masen Hofmann 17:18.80 17:32.00 ( 13.20 )
Zack Tempert 17:18.90 17:39.10 ( 20.20 )
Beau Williams 17:19.10 17:10.50 8.60
Davin Soto 17:19.50 17:12.00 7.50
Daniel Kniss 17:19.70 17:36.00 ( 16.30 )
Reyshua Ramos Rodriguez 17:19.70 19:08.70 ( 1:49.00 )
Adrian Gonzales 17:19.80 18:02.60 ( 42.80 )
Jan Fortunato 17:20.00 18:29.50 ( 1:09.50 )
Cayden Robles 17:20.50 18:49.80 ( 1:29.30 )
Hunter Garrido 17:20.70 17:03.00 17.70
Marshall Hammond 17:20.80 18:08.30 ( 47.50 )
Albert Diaz 17:20.90 19:28.60 ( 2:07.70 )
Angel Tapia 17:20.90 18:11.60 ( 50.70 )
Jason Dylla 17:20.90 18:58.00 ( 1:37.10 )
Nalzheii Lonetree 17:22.40 16:25.20 57.20
Carter Giambri 17:22.70 17:30.60 ( 7.90 )
Jack Piorkowski 17:22.70 18:26.00 ( 1:03.30 )
Noah Emmerling 17:23.30 18:05.00 ( 41.70 )
Andy Ortiz 17:23.60 18:26.80 ( 1:03.20 )
Jordan Mares 17:23.90 19:03.10 ( 1:39.20 )
Carson Tanner 17:24.00 18:40.10 ( 1:16.10 )
David Merrill 17:24.90 16:21.80 1:03.10
Aren Seaton 17:25.00 19:58.00 ( 2:33.00 )
Mark Field 17:25.50 17:26.30 ( 0.80 )
Justin Taylor 17:26.70 17:33.80 ( 7.10 )
Mathew Miller 17:27.20 17:40.00 ( 12.80 )
Jesper Wolski 17:28.80 17:44.00 ( 15.20 )
Alex Rodriguez 17:28.80 19:32.30 ( 2:03.50 )
Jesus Padilla 17:29.40 16:54.20 35.20
Xavier Rodriguez 17:29.90 17:18.00 11.90
Adam Hauck 17:30.50 17:03.20 27.30
Luis Acuna Esquivel 17:30.60 18:08.90 ( 38.30 )
Michael Pooley 17:31.70 17:37.50 ( 5.80 )
Jared Logan 17:32.00 17:55.30 ( 23.30 )
Dermot Broderick 17:32.30 18:21.40 ( 49.10 )
Conner Zook 17:32.50 17:14.20 18.30
Kevin Degroff 17:32.60 20:48.20 ( 3:15.60 )
Ceth Reeves 17:32.70 17:49.00 ( 16.30 )
Wyatt Bray 17:34.70 18:15.00 ( 40.30 )
Luis Silva 17:35.30 18:42.50 ( 1:07.20 )
Reichen Cooke 17:35.40 18:44.90 ( 1:09.50 )
Duncan Walker 17:35.40 18:20.10 ( 44.70 )
Ian Espenship 17:35.70 17:33.20 2.50
Nathan Lopez 17:36.40 18:26.00 ( 49.60 )
Dana Crist 17:36.50 17:52.90 ( 16.40 )
Shawnanthony Pashano 17:36.50 17:57.00 ( 20.50 )
Alex Linford 17:37.20 19:45.50 ( 2:08.30 )
Matthew Kuczora 17:37.40 18:29.80 ( 52.40 )
Samuel Bench 17:38.60 18:41.10 ( 1:02.50 )
Kent Garner 17:38.70 18:13.40 ( 34.70 )
Griffin Calfee 17:38.90 17:21.00 17.90
Caleb Rayman 17:40.10 17:44.00 ( 3.90 )
Jordan Gloria 17:40.60 19:02.50 ( 1:21.90 )
Luke Beyer 17:40.60 18:25.00 ( 44.40 )
Matthew Diaz 17:41.10 17:21.00 20.10
Nicholas Logan 17:42.00 17:57.80 ( 15.80 )
Dilin Nguyen 17:42.00 17:58.10 ( 16.10 )
Evan Kamp 17:43.30 18:36.40 ( 53.10 )
Eryk Mejia 17:43.90 17:48.00 ( 4.10 )
Eric Lin 17:44.00 17:16.00 28.00
Andrew Duque 17:44.20 17:35.30 8.90
Raul Reyna 17:44.20 19:40.20 ( 1:56.00 )
Asiah Joseph 17:44.40 19:38.50 ( 1:54.10 )
Elliott Vanderploeg 17:44.70 18:48.10 ( 1:03.40 )
Kavi Manik 17:45.60 18:30.50 ( 44.90 )
Luke Edgewater 17:45.60 17:42.00 3.60
Ian Rathsburg 17:45.80 18:43.30 ( 57.50 )
Josh Camberg 17:45.90 18:23.00 ( 37.10 )
Riley Bliss 17:46.20 18:34.20 ( 48.00 )
James Cochran 17:46.80 18:47.00 ( 1:00.20 )
Grant Montierth 17:47.90 17:40.10 7.80
Triston Billy 17:47.90 17:08.60 39.30
Ryan Gomez 17:48.50 18:55.70 ( 1:07.20 )
Anthony Cox 17:48.80 20:19.00 ( 2:30.20 )
Konnor Cormier 17:49.20 18:26.50 ( 37.30 )
Ethan Abeyta 17:49.20 20:06.10 ( 2:16.90 )
Kellen Chipman 17:49.20 18:12.50 ( 23.30 )
Samuel Anderson 17:49.50 18:07.50 ( 18.00 )
Zackary Zertuche 17:49.80 18:20.00 ( 30.20 )
Cade Woolf 17:49.90 20:23.60 ( 2:33.70 )
Colin Zurek 17:50.10 18:54.00 ( 1:03.90 )
Stephon Hendricks 17:51.30 18:14.30 ( 23.00 )
Colwyn Nelson 17:51.30 18:51.00 ( 59.70 )
Bryant Navasie 17:51.80 17:59.00 ( 7.20 )
Josh Lafontaine 17:52.60 17:57.00 ( 4.40 )
Marshall Smith 17:54.20 17:50.50 3.70
Chris Broze 17:54.50 19:51.30 ( 1:56.80 )
Addison Belnap 17:55.70 18:17.50 ( 21.80 )
Jehiah Rogers 17:56.50 18:19.60 ( 23.10 )
Ryan Sparks 17:56.60 18:06.80 ( 10.20 )
Juan Hernandez 17:57.10 16:30.00 1:27.10
Broc Berg 17:57.70 18:24.70 ( 27.00 )
Ryan Crockett 17:57.70 17:32.70 25.00
Andrew Schrater 17:57.80 18:00.10 ( 2.30 )
Michael Rubio 17:57.80 17:49.30 8.50
Kaden Clark 17:57.90 18:30.70 ( 32.80 )
Phoenix Swiacki 17:58.00 18:52.60 ( 54.60 )
Tristan Munalem 17:58.10 19:02.40 ( 1:04.30 )
Kristian Zwiers 17:58.10 18:46.00 ( 47.90 )
Caal Figueroa 17:58.40 18:51.60 ( 53.20 )
Aidan Johansson 17:58.60 18:01.00 ( 2.40 )
Jonathan Hewings 17:58.60 16:56.30 1:02.30
Bobby Coss 17:59.10 18:37.00 ( 37.90 )
Alan Winter 17:59.20 19:07.90 ( 1:08.70 )
Dominic Gutierrez 17:59.50 18:11.50 ( 12.00 )
Joseph Rakich 18:00.10 19:00.00 ( 59.90 )
Diyanii Yazzie 18:01.30 16:42.50 1:18.80
Chad Belone 18:02.20 18:17.00 ( 14.80 )
Gunner Garcia 18:03.20 16:36.70 1:26.50
Nathaniel Sullivan 18:03.70 18:41.10 ( 37.40 )
Chaston Smith 18:04.40 17:38.40 26.00
Steven Baker 18:04.50 16:53.00 1:11.50
Russell Baker 18:05.20 18:35.70 ( 30.50 )
Jackson Kayser 18:05.40 18:44.00 ( 38.60 )
Trey Tracy 18:05.80 18:08.00 ( 2.20 )
Brendan Beals 18:05.80 23:10.90 ( 5:05.10 )
Michael Nevarez 18:05.90 18:22.00 ( 16.10 )
Adrian Alvarez 18:06.50 27:27.50 ( 9:21.00 )
Micah Simpson Jr 18:06.90 18:30.60 ( 23.70 )
Cameron Dietrich 18:07.50 18:33.80 ( 26.30 )
Nehemiah Johnson 18:08.00 18:19.90 ( 11.90 )
Angel Arroyo Briones 18:08.40 19:43.20 ( 1:34.80 )
Haden Pittson 18:09.00 20:31.20 ( 2:22.20 )
Keanu James 18:09.00 17:37.00 32.00
Trevor Snedeker 18:10.40 18:18.00 ( 7.60 )
Jake Davis 18:10.40 19:13.30 ( 1:02.90 )
Brady O'gara 18:12.10 18:40.10 ( 28.00 )
Tim Cody 18:12.90 17:12.80 1:00.10
Ryan Kay 18:13.00 17:55.50 17.50
Andrew Alexander 18:13.30 20:03.30 ( 1:50.00 )
Reid Gunnels 18:13.60 21:03.10 ( 2:49.50 )
Tomas Martin 18:14.10 19:02.50 ( 48.40 )
Nick Sivertson 18:15.80 17:41.70 34.10
Brendan Torres 18:16.60 18:08.50 8.10
Dante Deanda 18:16.90 18:36.60 ( 19.70 )
Aidan Mcguire 18:17.00 18:09.00 8.00
Gavin Nielsen 18:17.30 23:00.80 ( 4:43.50 )
Cade Cantrell 18:18.00 19:01.60 ( 43.60 )
Braden Watkins 18:19.10 18:12.90 6.20
Damen Anderson 18:19.70 18:32.00 ( 12.30 )
Cameron Toothaker-lopez 18:19.80 17:12.20 1:07.60
Ethan Whitman 18:20.30 18:43.30 ( 23.00 )
Roman Valdivia 18:21.00 18:18.40 2.60
Jonas Valdez 18:21.10 19:26.30 ( 1:05.20 )
Josh Peterson 18:21.30 18:16.00 5.30
Matthew Barney 18:21.50 17:56.00 25.50
Hassan Mahamat 18:21.80 18:05.00 16.80
Logan Brethaur 18:23.20 19:24.40 ( 1:01.20 )
Lucas Young 18:23.60 18:03.50 20.10
Noah Patch 18:24.50 20:48.80 ( 2:24.30 )
Mark Meikle 18:24.70 19:40.00 ( 1:15.30 )
Julian Sosa 18:25.60 17:54.00 31.60
Christian Medina 18:25.70 20:02.20 ( 1:36.50 )
Chase Lushia 18:25.80 18:36.70 ( 10.90 )
Victor Villalvazo 18:26.00 20:17.70 ( 1:51.70 )
Scott Bloomfield 18:26.30 18:38.70 ( 12.40 )
Caleb Kettring 18:26.70 18:18.00 8.70
Andreus Tolliver 18:27.60 20:10.50 ( 1:42.90 )
Jacob Clendening 18:27.60 19:45.00 ( 1:17.40 )
Connor Lamb 18:28.20 18:47.10 ( 18.90 )
Zach Facemire 18:29.00 18:43.80 ( 14.80 )
Izaiah Barrera-ramos 18:29.60 20:47.20 ( 2:17.60 )
Jude Mclaughlin 18:30.20 18:20.20 10.00
Aidan Falcon 18:31.10 17:58.00 33.10
Kylan Atkinson 18:32.00 19:05.40 ( 33.40 )
Hayden Mike 18:32.10 19:48.40 ( 1:16.30 )
Brandon Morrison 18:32.40 20:23.70 ( 1:51.30 )
Peter Schillinger 18:32.70 18:51.70 ( 19.00 )
Emmit Phillips 18:33.40 19:27.60 ( 54.20 )
Ronaldo Martinez 18:34.40 17:18.40 1:16.00
Matthew Riehm 18:34.70 21:32.70 ( 2:58.00 )
Connor Donihi 18:35.30 20:40.30 ( 2:05.00 )
Daniel Nichols 18:35.80 19:39.90 ( 1:04.10 )
Jonah Barber 18:37.00 18:20.60 16.40
Matthew Michels 18:37.30 20:08.80 ( 1:31.50 )
Christian Cartier 18:37.50 19:08.30 ( 30.80 )
Thomas Reyes 18:37.50 18:15.00 22.50
Slater Hill 18:38.00 18:00.90 37.10
Nathan Magro 18:39.20 19:58.90 ( 1:19.70 )
Matt Montana 18:39.30 19:18.90 ( 39.60 )
Logan Bridge 18:40.30 17:57.00 43.30
Wayne Mccolgan 18:40.50 20:37.90 ( 1:57.40 )
Tyler Fichiera 18:41.30 20:31.50 ( 1:50.20 )
John Rebeta 18:41.50 18:44.90 ( 3.40 )
Victor Gutierrez 18:42.30 19:20.90 ( 38.60 )
Blake Weiler 18:42.30 20:06.90 ( 1:24.60 )
Juan Alicea 18:42.70 19:48.10 ( 1:05.40 )
Thomas Cook 18:43.70 19:06.70 ( 23.00 )
William Grobe 18:44.00 19:07.30 ( 23.30 )
Abraham Daza 18:45.50 20:40.90 ( 1:55.40 )
Antonio Aguilar 18:45.80 21:10.60 ( 2:24.80 )
Jonathon Tucker 18:46.10 22:33.20 ( 3:47.10 )
Caleb Taylor 18:46.30 19:25.30 ( 39.00 )
Dylan O'hara 18:46.30 19:36.00 ( 49.70 )
Gabriel Baca 18:46.50 19:02.10 ( 15.60 )
Davis Mckechnie 18:47.30 20:09.10 ( 1:21.80 )
Jesse Turner 18:48.60 19:36.80 ( 48.20 )
Caleb Holiday 18:49.30 17:02.80 1:46.50
Kaleo Inez 18:50.00 19:39.10 ( 49.10 )
Dylan Salazar 18:50.50 19:20.60 ( 30.10 )
Glen Lee 18:50.50 18:07.00 43.50
Jaden Culley 18:51.50 19:19.80 ( 28.30 )
Daniel Casanova 18:51.50 18:40.20 11.30
Angel Campos 18:51.70 20:00.10 ( 1:08.40 )
Joel Ray 18:52.40 18:38.90 13.50
Christian Rodriguez 18:52.70 19:21.00 ( 28.30 )
James Bastian 18:52.70 19:29.30 ( 36.60 )
Enrique Gonzalez 18:52.80 20:06.90 ( 1:14.10 )
Jacob Nemivant 18:53.70 22:28.60 ( 3:34.90 )
Will Barmetler 18:54.10 20:29.40 ( 1:35.30 )
Chris Pedersen 18:54.50 20:57.80 ( 2:03.30 )
Matthew Smith 18:54.80 18:30.50 24.30
Tristan Long 18:55.70 18:13.00 42.70
Ben Olea 18:56.20 19:34.70 ( 38.50 )
Roque Mora 18:57.60 19:28.30 ( 30.70 )
Ben Reidhead 18:57.80 17:29.90 1:27.90
Anthony Gibbs 18:57.90 19:32.20 ( 34.30 )
Aeden Szopinski 18:58.70 17:57.00 1:01.70
Caleb Sieler 18:59.00 19:36.40 ( 37.40 )
Alex Cole 19:00.10 19:52.90 ( 52.80 )
Jack Wagner 19:00.30 19:20.80 ( 20.50 )
Matthew Guinn 19:00.60 20:12.40 ( 1:11.80 )
Trey Duncan 19:01.20 18:22.00 39.20
Matthew Sylvester 19:01.30 18:43.90 17.40
Joe Briones 19:01.70 18:46.60 15.10
Spencer Sherwood 19:02.10 18:54.50 7.60
Daniel Griffith 19:02.60 21:22.70 ( 2:20.10 )
Jacob Bushman 19:03.10 18:20.90 42.20
Anthony Chanez 19:03.10 19:19.60 ( 16.50 )
Abel Barraza 19:03.40 18:17.70 45.70
Justin Alonzo 19:03.60 20:33.90 ( 1:30.30 )
Fernando Anaya 19:04.10 18:58.50 5.60
Luke Kiecker 19:05.20 19:40.00 ( 34.80 )
Dagoberto Gastelum 19:05.40 18:40.80 24.60
Adam Coates 19:06.00 19:42.90 ( 36.90 )
Ray Ricardes 19:07.80 19:05.30 2.50
Michael Zelazny 19:08.30 20:49.80 ( 1:41.50 )
Daniel Hale 19:10.10 19:08.20 1.90
Christian Barreto 19:10.20 17:27.70 1:42.50
Zeff Hetman 19:10.30 20:02.40 ( 52.10 )
Cameron Bailey-garcia 19:11.10 17:53.50 1:17.60
Robert Monson 19:11.30 19:29.60 ( 18.30 )
Jacob Welsh 19:11.70 19:00.50 11.20
Marcus Holder 19:11.80 20:38.60 ( 1:26.80 )
Kelvin Patrick 19:12.00 19:31.30 ( 19.30 )
Ryan Watson 19:12.00 20:32.40 ( 1:20.40 )
Rafael Samaniego 19:12.20 19:45.10 ( 32.90 )
Hans Brauer 19:12.20 20:25.60 ( 1:13.40 )
Samuel Lichlyter 19:12.60 20:24.80 ( 1:12.20 )
Kevin Cody 19:12.90 20:00.20 ( 47.30 )
Ethan Van Der Zweep 19:14.40 20:10.20 ( 55.80 )
Nathan Smith 19:15.00 19:53.10 ( 38.10 )
Maximus Lancaster 19:15.10 18:52.60 22.50
Ryan Tso 19:15.40 20:37.50 ( 1:22.10 )
Benjamin Hanson 19:15.60 21:21.50 ( 2:05.90 )
Nicholas Behr 19:15.80 20:41.10 ( 1:25.30 )
Alfredo Pineda 19:15.80 19:50.20 ( 34.40 )
Evan Bosen 19:16.50 19:49.40 ( 32.90 )
Jaxson Kobel 19:17.80 21:02.60 ( 1:44.80 )
Austin Valenzuela 19:18.30 20:21.20 ( 1:02.90 )
Raul Moreno 19:18.40 20:13.80 ( 55.40 )
Henry Glaesser 19:18.50 19:38.00 ( 19.50 )
Auggie Grandy 19:19.50 19:51.20 ( 31.70 )
Carson Moore 19:19.90 24:16.90 ( 4:57.00 )
Jack Reser 19:20.30 23:19.80 ( 3:59.50 )
Brandon Ericson 19:20.30 20:23.50 ( 1:03.20 )
Adrian Chavez 19:20.60 20:04.30 ( 43.70 )
Chaz Koronich 19:20.70 21:37.10 ( 2:16.40 )
Garrett Rosen 19:21.10 20:42.60 ( 1:21.50 )
Colin Hamilton 19:21.30 20:26.90 ( 1:05.60 )
Francisco Pedroza 19:21.50 19:45.90 ( 24.40 )
Matthew Tryon 19:21.50 22:34.80 ( 3:13.30 )
Canyon Cooke 19:22.00 20:01.00 ( 39.00 )
James Marler-brown 19:22.20 20:08.20 ( 46.00 )
Nathan Wicker 19:22.60 18:47.00 35.60
Erick Galation 19:22.70 20:41.00 ( 1:18.30 )
Cody Wager 19:23.20 18:21.80 1:01.40
Justin Perillo 19:23.70 20:02.70 ( 39.00 )
Jacob Cheshire 19:24.40 22:02.40 ( 2:38.00 )
Luke Power 19:24.40 20:30.20 ( 1:05.80 )
Diego Avila 19:25.20 22:56.10 ( 3:30.90 )
Tony Todora 19:25.80 20:16.80 ( 51.00 )
Diego Gomez 19:26.60 22:08.20 ( 2:41.60 )
Ricardo Rojas Sevilla 19:27.40 20:35.90 ( 1:08.50 )
Isaiah Whitehorse 19:27.80 20:52.70 ( 1:24.90 )
Ryan Dempsey 19:28.40 20:16.00 ( 47.60 )
Mays Jones 19:28.70 18:04.90 1:23.80
Michael Kupfer 19:28.70 19:49.70 ( 21.00 )
Daniel Islas Vargas 19:29.20 19:28.00 1.20
Damian Lopez 19:29.50 17:21.00 2:08.50
William Wayne 19:29.50 19:22.50 7.00
August Rovn 19:29.70 20:22.00 ( 52.30 )
Austin Hart 19:30.20 21:00.60 ( 1:30.40 )
Brendan Cosseboom 19:30.20 20:49.90 ( 1:19.70 )
Alex Pasos 19:30.20 18:32.00 58.20
Jonathan Babadzhanov 19:30.50 19:47.30 ( 16.80 )
Brandon Lythgoe 19:31.00 20:15.30 ( 44.30 )
Samuel Jarvis 19:31.40 18:28.40 1:03.00
Tim Mooney 19:32.00 20:19.40 ( 47.40 )
Alexander Zhou 19:32.70 20:42.10 ( 1:09.40 )
Ethan Bertrand 19:32.80 19:24.60 8.20
Eduardo Arellano 19:32.90 18:54.20 38.70
Pedro Rodriguez 19:33.70 23:37.70 ( 4:04.00 )
Castro Arath 19:34.80 22:16.40 ( 2:41.60 )
Aaron Webdale 19:35.20 18:53.30 41.90
Stephen Chu 19:35.70 18:53.80 41.90
Brandon Mcauliffe 19:35.80 19:56.00 ( 20.20 )
Eric Peapenburg 19:36.00 20:01.90 ( 25.90 )
Kyle Memmott 19:36.30 18:51.90 44.40
Micah Ivins 19:36.50 19:19.10 17.40
Trevor Klablunde 19:37.10 21:31.90 ( 1:54.80 )
Carlos Arroyo 19:37.20 19:44.20 ( 7.00 )
Mason Williams 19:37.40 22:27.80 ( 2:50.40 )
Britton Ballard 19:37.70 20:41.50 ( 1:03.80 )
Austin Crowder 19:39.00 18:20.90 1:18.10
Dahltyn Perkins 19:39.30 19:41.20 ( 1.90 )
Max Lunifeld 19:41.30 21:43.40 ( 2:02.10 )
Samuel Stapley 19:41.90 20:07.30 ( 25.40 )
Morgan Higginbotham 19:41.90 20:45.20 ( 1:03.30 )
David Zaragoza 19:43.10 24:56.50 ( 5:13.40 )
Logan Gomez 19:43.50 19:50.30 ( 6.80 )
Tyler Crockett 19:44.20 19:02.00 42.20
Eli Landry 19:44.50 20:48.90 ( 1:04.40 )
Henry Nasewytewa 19:46.30 22:27.60 ( 2:41.30 )
John Gengler 19:46.80 19:05.60 41.20
Seth Watson 19:47.00 26:32.40 ( 6:45.40 )
Nathan Stahle 19:47.70 20:49.30 ( 1:01.60 )
Comments